| time (UTC) | temp C | wind direction | speed KPH | gust KPH | rain 1hr cm | rain 24hr cm | rain mn cm | humidity % | barometer mb |
| 20260503185005 | 16 | 270 | 4.8 | 14.5 | 0.00 | 0.00 | 0.00 | 11 | 985.8 |
| 20260503184504 | 16 | 4 | 8.0 | 12.9 | 0.00 | 0.00 | 0.00 | 10 | 986.5 |
| 20260503184004 | 16 | 202 | 6.4 | 20.9 | 0.00 | 0.00 | 0.00 | 10 | 986.9 |
| 20260503183503 | 16 | 204 | 6.4 | 12.9 | 0.00 | 0.00 | 0.00 | 11 | 984.8 |
| 20260503183009 | 16 | 339 | 4.8 | 8.0 | 0.00 | 0.00 | 0.00 | 11 | 986.0 |
| 20260503182508 | 16 | 237 | 3.2 | 9.7 | 0.00 | 0.00 | 0.00 | 10 | 987.0 |
| 20260503182007 | 16 | 91 | 3.2 | 8.0 | 0.00 | 0.00 | 0.00 | 11 | 986.4 |
| 20260503181507 | 16 | 274 | 3.2 | 9.7 | 0.00 | 0.00 | 0.00 | 11 | 986.2 |
| 20260503181006 | 16 | 353 | 3.2 | 6.4 | 0.00 | 0.00 | 0.00 | 9 | 986.3 |
| 20260503180505 | 17 | 168 | 4.8 | 9.7 | 0.00 | 0.00 | 0.00 | 8 | 986.8 |
| 20260503180005 | 17 | 30 | 3.2 | 8.0 | 0.00 | 0.00 | 0.00 | 9 | 986.2 |
| 20260503175004 | 16 | 158 | 3.2 | 6.4 | 0.00 | 0.00 | 0.00 | 10 | 985.9 |
| 20260503174503 | 17 | 195 | 4.8 | 11.3 | 0.00 | 0.00 | 0.00 | 10 | 986.6 |
| 20260503174003 | 17 | 188 | 3.2 | 8.0 | 0.00 | 0.00 | 0.00 | 8 | 986.7 |
| 20260503173508 | 17 | 271 | 4.8 | 8.0 | 0.00 | 0.00 | 0.00 | 9 | 987.7 |
| 20260503173008 | 17 | 115 | 4.8 | 9.7 | 0.00 | 0.00 | 0.00 | 8 | 986.6 |
| 20260503172507 | 17 | 334 | 3.2 | 4.8 | 0.00 | 0.00 | 0.00 | 10 | 987.0 |
| 20260503171506 | 16 | 181 | 11.3 | 17.7 | 0.00 | 0.00 | 0.00 | 8 | 987.8 |
| 20260503171006 | 18 | 45 | 3.2 | 6.4 | 0.00 | 0.00 | 0.00 | 8 | 987.1 |
| 20260503170505 | 17 | 185 | 3.2 | 9.7 | 0.00 | 0.00 | 0.00 | 10 | 987.0 |
| 20260503150507 | 13 | 156 | 9.7 | 14.5 | 0.00 | 0.00 | 0.00 | 13 | 985.7 |
| 20260503131006 | 11 | 130 | 1.6 | 1.6 | 0.00 | 0.00 | 0.00 | 19 | 984.8 |
| 20260503130506 | 11 | 109 | 1.6 | 1.6 | 0.00 | 0.00 | 0.00 | 20 | 985.3 |
| 20260503110504 | 11 | 205 | 8.0 | 16.1 | 0.00 | 0.00 | 0.00 | 21 | 984.5 |
| 20260503090508 | 10 | 294 | 1.6 | 4.8 | 0.00 | 0.00 | 0.00 | 20 | 984.9 |
| 20260503081508 | 11 | 182 | 9.7 | 9.7 | 0.00 | 0.00 | 0.00 | 17 | 986.4 |
| 20260503081008 | 11 | 190 | 4.8 | 4.8 | 0.00 | 0.00 | 0.00 | 18 | 986.3 |
| 20260503080507 | 11 | 190 | 4.8 | 4.8 | 0.00 | 0.00 | 0.00 | 18 | 986.3 |
| 20260503072509 | 11 | 159 | 9.7 | 12.9 | 0.00 | 0.00 | 0.00 | 15 | 985.8 |
| 20260503072008 | 11 | 171 | 4.8 | 9.7 | 0.00 | 0.00 | 0.00 | 16 | 985.2 |
| 20260503071007 | 11 | 150 | 8.0 | 9.7 | 0.00 | 0.00 | 0.00 | 18 | 985.3 |
| 20260503070507 | 11 | 179 | 9.7 | 12.9 | 0.00 | 0.00 | 0.00 | 18 | 985.0 |
| 20260503054505 | 11 | 158 | 9.7 | 16.1 | 0.00 | 0.00 | 0.00 | 19 | 985.9 |
| 20260503054005 | 11 | 146 | 8.0 | 11.3 | 0.00 | 0.00 | 0.00 | 19 | 985.9 |
| 20260503053504 | 11 | 147 | 8.0 | 11.3 | 0.00 | 0.00 | 0.00 | 19 | 985.4 |
| 20260503052503 | 11 | 156 | 12.9 | 17.7 | 0.00 | 0.00 | 0.00 | 19 | 986.2 |
| 20260503052009 | 11 | 144 | 9.7 | 11.3 | 0.00 | 0.00 | 0.00 | 19 | 986.7 |
| 20260503051508 | 11 | 157 | 9.7 | 12.9 | 0.00 | 0.00 | 0.00 | 19 | 986.4 |
| 20260503051008 | 11 | 155 | 9.7 | 11.3 | 0.00 | 0.00 | 0.00 | 18 | 986.6 |
| 20260503050507 | 11 | 140 | 6.4 | 11.3 | 0.00 | 0.00 | 0.00 | 19 | 986.1 |
| 20260503045507 | 11 | 155 | 6.4 | 9.7 | 0.00 | 0.00 | 0.00 | 18 | 986.0 |
| 20260503045006 | 11 | 145 | 6.4 | 9.7 | 0.00 | 0.00 | 0.00 | 18 | 986.0 |
| 20260503044506 | 11 | 134 | 6.4 | 9.7 | 0.00 | 0.00 | 0.00 | 18 | 985.9 |
| 20260503044005 | 11 | 104 | 8.0 | 12.9 | 0.00 | 0.00 | 0.00 | 19 | 985.8 |
| 20260503043505 | 11 | 150 | 6.4 | 9.7 | 0.00 | 0.00 | 0.00 | 18 | 985.4 |
| 20260503043004 | 10 | 137 | 9.7 | 12.9 | 0.00 | 0.00 | 0.00 | 18 | 985.8 |
| 20260503042503 | 11 | 137 | 8.0 | 11.3 | 0.00 | 0.00 | 0.00 | 18 | 985.4 |
| 20260503042009 | 11 | 148 | 9.7 | 11.3 | 0.00 | 0.00 | 0.00 | 18 | 986.1 |
| 20260503041509 | 11 | 137 | 6.4 | 9.7 | 0.00 | 0.00 | 0.00 | 18 | 985.6 |
| 20260503041008 | 11 | 145 | 8.0 | 12.9 | 0.00 | 0.00 | 0.00 | 18 | 986.1 |
| 20260503040507 | 11 | 140 | 4.8 | 9.7 | 0.00 | 0.00 | 0.00 | 17 | 985.4 |
| 20260503040007 | 11 | 133 | 4.8 | 8.0 | 0.00 | 0.00 | 0.00 | 17 | 984.9 |
| 20260503035506 | 11 | 121 | 4.8 | 9.7 | 0.00 | 0.00 | 0.00 | 17 | 985.0 |
| 20260503035006 | 11 | 131 | 4.8 | 11.3 | 0.00 | 0.00 | 0.00 | 16 | 985.4 |
| 20260503034505 | 11 | 136 | 4.8 | 8.0 | 0.00 | 0.00 | 0.00 | 17 | 985.3 |
| 20260503034005 | 11 | 143 | 8.0 | 14.5 | 0.00 | 0.00 | 0.00 | 16 | 984.7 |
| 20260503033503 | 11 | 140 | 8.0 | 12.9 | 0.00 | 0.00 | 0.00 | 16 | 985.2 |
| 20260503033009 | 11 | 159 | 4.8 | 12.9 | 0.00 | 0.00 | 0.00 | 17 | 985.3 |
| 20260503032508 | 11 | 135 | 6.4 | 11.3 | 0.00 | 0.00 | 0.00 | 16 | 985.6 |
| 20260503032007 | 11 | 146 | 8.0 | 8.0 | 0.00 | 0.00 | 0.00 | 15 | 985.5 |
| 20260503031507 | 11 | 133 | 6.4 | 11.3 | 0.00 | 0.00 | 0.00 | 14 | 984.9 |
| 20260503031007 | 12 | 155 | 8.0 | 11.3 | 0.00 | 0.00 | 0.00 | 13 | 984.3 |
| 20260503030506 | 12 | 135 | 6.4 | 9.7 | 0.00 | 0.00 | 0.00 | 14 | 984.1 |
| 20260503030005 | 12 | 149 | 6.4 | 9.7 | 0.00 | 0.00 | 0.00 | 14 | 984.5 |
| 20260503025505 | 12 | 146 | 4.8 | 9.7 | 0.00 | 0.00 | 0.00 | 12 | 983.8 |
| 20260503025004 | 12 | 84 | 3.2 | 4.8 | 0.00 | 0.00 | 0.00 | 13 | 984.6 |
| 20260503024504 | 12 | 132 | 4.8 | 8.0 | 0.00 | 0.00 | 0.00 | 13 | 984.9 |
| 20260503024009 | 12 | 147 | 6.4 | 9.7 | 0.00 | 0.00 | 0.00 | 12 | 984.6 |
| 20260503023508 | 12 | 117 | 8.0 | 9.7 | 0.00 | 0.00 | 0.00 | 11 | 984.4 |
| 20260503023007 | 13 | 108 | 6.4 | 11.3 | 0.00 | 0.00 | 0.00 | 10 | 984.4 |
| 20260503022006 | 13 | 76 | 4.8 | 6.4 | 0.00 | 0.00 | 0.00 | 9 | 985.0 |
| 20260503021506 | 13 | 91 | 4.8 | 8.0 | 0.00 | 0.00 | 0.00 | 8 | 985.0 |
| 20260503021005 | 13 | 99 | 3.2 | 4.8 | 0.00 | 0.00 | 0.00 | 8 | 985.2 |
| 20260503020006 | 14 | 95 | 3.2 | 4.8 | 0.00 | 0.00 | 0.00 | 6 | 986.0 |
| 20260503015505 | 14 | 107 | 3.2 | 4.8 | 0.00 | 0.00 | 0.00 | 6 | 985.3 |
| 20260503015005 | 14 | 105 | 6.4 | 9.7 | 0.00 | 0.00 | 0.00 | 6 | 985.8 |
| 20260503014504 | 14 | 120 | 4.8 | 8.0 | 0.00 | 0.00 | 0.00 | 7 | 984.7 |
| 20260503014004 | 14 | 101 | 6.4 | 8.0 | 0.00 | 0.00 | 0.00 | 6 | 985.0 |
| 20260503013503 | 14 | 97 | 4.8 | 6.4 | 0.00 | 0.00 | 0.00 | 7 | 984.6 |
| 20260503013009 | 14 | 111 | 4.8 | 6.4 | 0.00 | 0.00 | 0.00 | 6 | 984.9 |
| 20260503012508 | 15 | 131 | 4.8 | 6.4 | 0.00 | 0.00 | 0.00 | 6 | 984.2 |
| 20260503012007 | 15 | 102 | 6.4 | 9.7 | 0.00 | 0.00 | 0.00 | 5 | 984.7 |
| 20260503011507 | 15 | 125 | 4.8 | 6.4 | 0.00 | 0.00 | 0.00 | 5 | 985.1 |
| 20260503011006 | 15 | 124 | 4.8 | 6.4 | 0.00 | 0.00 | 0.00 | 5 | 984.9 |
| 20260503010506 | 15 | 115 | 4.8 | 8.0 | 0.00 | 0.00 | 0.00 | 5 | 984.4 |
| 20260503010005 | 16 | 116 | 3.2 | 6.4 | 0.00 | 0.00 | 0.00 | 5 | 985.2 |
| 20260503005004 | 16 | 113 | 4.8 | 8.0 | 0.00 | 0.00 | 0.00 | 4 | 985.0 |
| 20260503004503 | 16 | 144 | 8.0 | 11.3 | 0.00 | 0.00 | 0.00 | 4 | 985.7 |
| 20260503003509 | 17 | 136 | 4.8 | 6.4 | 0.00 | 0.00 | 0.00 | 2 | 985.7 |
| 20260503003008 | 16 | 163 | 3.2 | 4.8 | 0.00 | 0.00 | 0.00 | 2 | 985.0 |
| 20260503002007 | 16 | 127 | 4.8 | 6.4 | 0.00 | 0.00 | 0.00 | 3 | 984.9 |
| 20260503001507 | 17 | 145 | 6.4 | 6.4 | 0.00 | 0.00 | 0.00 | 3 | 984.7 |
| 20260503001006 | 17 | 145 | 4.8 | 9.7 | 0.00 | 0.00 | 0.00 | 3 | 984.7 |
| 20260503000005 | 17 | 154 | 6.4 | 6.4 | 0.00 | 0.00 | 0.00 | 1 | 985.2 |
| 20260502235505 | 18 | 150 | 6.4 | 8.0 | 0.00 | 0.00 | 0.00 | 1 | 985.4 |
| 20260502235004 | 17 | 145 | 8.0 | 8.0 | 0.00 | 0.00 | 0.00 | 2 | 985.9 |
| 20260502234504 | 18 | 138 | 6.4 | 6.4 | 0.00 | 0.00 | 0.00 | 1 | 985.1 |
| 20260502234003 | 18 | 130 | 8.0 | 9.7 | 0.00 | 0.00 | 0.00 | 1 | 985.4 |
| 20260502233503 | 18 | 138 | 6.4 | 8.0 | 0.00 | 0.00 | 0.00 | 2 | 985.3 |
| 20260502233008 | 18 | 141 | 9.7 | 11.3 | 0.00 | 0.00 | 0.00 | 1 | 985.3 |
| 20260502232507 | 20 | 133 | 4.8 | 6.4 | 0.00 | 0.00 | 0.00 | 2 | 985.0 |
| 20260502232007 | 18 | 127 | 4.8 | 8.0 | 0.00 | 0.00 | 0.00 | 2 | 984.8 |
| 20260502231506 | 17 | 141 | 4.8 | 11.3 | 0.00 | 0.00 | 0.00 | 100 | 986.0 |
| 20260502231006 | 18 | 125 | 4.8 | 6.4 | 0.00 | 0.00 | 0.00 | 3 | 985.2 |
| 20260502230505 | 17 | 90 | 4.8 | 8.0 | 0.00 | 0.00 | 0.00 | 3 | 984.9 |
| 20260502230005 | 17 | 127 | 4.8 | 8.0 | 0.00 | 0.00 | 0.00 | 3 | 984.7 |
| 20260502225504 | 17 | 101 | 4.8 | 6.4 | 0.00 | 0.00 | 0.00 | 3 | 985.5 |
| 20260502225003 | 17 | 135 | 4.8 | 8.0 | 0.00 | 0.00 | 0.00 | 2 | 984.8 |
| 20260502224509 | 17 | 125 | 4.8 | 8.0 | 0.00 | 0.00 | 0.00 | 3 | 985.7 |
| 20260502224008 | 17 | 142 | 6.4 | 9.7 | 0.00 | 0.00 | 0.00 | 2 | 985.0 |
| 20260502223507 | 17 | 137 | 6.4 | 9.7 | 0.00 | 0.00 | 0.00 | 2 | 984.7 |
| 20260502223007 | 17 | 148 | 6.4 | 9.7 | 0.00 | 0.00 | 0.00 | 1 | 984.2 |
| 20260502222506 | 17 | 140 | 6.4 | 9.7 | 0.00 | 0.00 | 0.00 | 2 | 985.0 |
| 20260502222005 | 17 | 146 | 8.0 | 11.3 | 0.00 | 0.00 | 0.00 | 2 | 985.1 |
| 20260502221505 | 18 | 150 | 4.8 | 6.4 | 0.00 | 0.00 | 0.00 | 3 | 985.2 |
| 20260502221004 | 18 | 127 | 8.0 | 11.3 | 0.00 | 0.00 | 0.00 | 2 | 985.7 |
| 20260502220503 | 17 | 127 | 6.4 | 9.7 | 0.00 | 0.00 | 0.00 | 2 | 985.5 |
| 20260502220009 | 17 | 131 | 4.8 | 6.4 | 0.00 | 0.00 | 0.00 | 2 | 986.5 |
| 20260502215508 | 17 | 122 | 4.8 | 6.4 | 0.00 | 0.00 | 0.00 | 3 | 986.0 |
| 20260502215008 | 17 | 127 | 6.4 | 9.7 | 0.00 | 0.00 | 0.00 | 3 | 986.2 |
| 20260502214507 | 17 | 142 | 6.4 | 9.7 | 0.00 | 0.00 | 0.00 | 3 | 985.7 |
| 20260502214006 | 18 | 127 | 4.8 | 6.4 | 0.00 | 0.00 | 0.00 | 3 | 985.1 |
| 20260502213518 | 18 | 135 | 8.0 | 9.7 | 0.00 | 0.00 | 0.00 | 2 | 986.1 |
| 20260502213005 | 18 | 147 | 3.2 | 4.8 | 0.00 | 0.00 | 0.00 | 1 | 985.5 |
| 20260502212504 | 18 | 152 | 6.4 | 8.0 | 0.00 | 0.00 | 0.00 | 1 | 985.8 |
| 20260502212004 | 18 | 126 | 4.8 | 8.0 | 0.00 | 0.00 | 0.00 | 1 | 985.9 |
| 20260502211503 | 18 | 138 | 6.4 | 11.3 | 0.00 | 0.00 | 0.00 | 1 | 986.3 |
| 20260502211009 | 19 | 165 | 8.0 | 11.3 | 0.00 | 0.00 | 0.00 | 1 | 986.8 |
| 20260502210508 | 20 | 157 | 4.8 | 9.7 | 0.00 | 0.00 | 0.00 | 1 | 986.6 |
| 20260502210008 | 20 | 143 | 6.4 | 8.0 | 0.00 | 0.00 | 0.00 | 1 | 986.4 |
| 20260502205507 | 18 | 143 | 9.7 | 12.9 | 0.00 | 0.00 | 0.00 | 1 | 986.8 |
| 20260502205006 | 18 | 127 | 6.4 | 11.3 | 0.00 | 0.00 | 0.00 | 2 | 986.4 |
| 20260502204506 | 17 | 122 | 3.2 | 3.2 | 0.00 | 0.00 | 0.00 | 1 | 986.8 |
| 20260502203505 | 17 | 139 | 4.8 | 6.4 | 0.00 | 0.00 | 0.00 | 100 | 987.0 |
| 20260502203004 | 17 | 121 | 3.2 | 3.2 | 0.00 | 0.00 | 0.00 | 1 | 986.4 |
| 20260502202504 | 17 | 128 | 3.2 | 3.2 | 0.00 | 0.00 | 0.00 | 1 | 986.5 |
| 20260502201503 | 16 | 146 | 6.4 | 6.4 | 0.00 | 0.00 | 0.00 | 5 | 986.6 |
| 20260502201002 | 16 | 169 | 4.8 | 6.4 | 0.00 | 0.00 | 0.00 | 6 | 986.2 |
| 20260502200508 | 16 | 148 | 8.0 | 9.7 | 0.00 | 0.00 | 0.00 | 4 | 986.8 |
| 20260502200007 | 17 | 141 | 8.0 | 11.3 | 0.00 | 0.00 | 0.00 | 4 | 986.5 |
| 20260502195507 | 17 | 149 | 8.0 | 11.3 | 0.00 | 0.00 | 0.00 | 5 | 986.2 |
| 20260502195007 | 17 | 143 | 8.0 | 11.3 | 0.00 | 0.00 | 0.00 | 5 | 986.3 |
| 20260502194506 | 16 | 129 | 4.8 | 8.0 | 0.00 | 0.00 | 0.00 | 4 | 986.4 |
| 20260502194006 | 16 | 123 | 3.2 | 4.8 | 0.00 | 0.00 | 0.00 | 3 | 985.9 |
| 20260502193505 | 17 | 92 | 4.8 | 6.4 | 0.00 | 0.00 | 0.00 | 4 | 986.6 |
| 20260502193004 | 17 | 94 | 4.8 | 9.7 | 0.00 | 0.00 | 0.00 | 6 | 986.4 |
| 20260502192503 | 16 | 125 | 6.4 | 9.7 | 0.00 | 0.00 | 0.00 | 6 | 986.4 |
| 20260502192003 | 16 | 90 | 8.0 | 12.9 | 0.00 | 0.00 | 0.00 | 7 | 986.7 |
| 20260502191508 | 17 | 92 | 3.2 | 4.8 | 0.00 | 0.00 | 0.00 | 5 | 986.6 |
| 20260502191008 | 17 | 100 | 4.8 | 9.7 | 0.00 | 0.00 | 0.00 | 7 | 985.9 |
| 20260502190007 | 17 | 97 | 4.8 | 9.7 | 0.00 | 0.00 | 0.00 | 6 | 986.1 |
| 20260502185507 | 17 | 102 | 3.2 | 3.2 | 0.00 | 0.00 | 0.00 | 6 | 985.4 |